Showing default

SKYKRAFT-1, 55041

Orbit data source: Space-Track

SKYKRAFT-1, 55041 is a payload satellite owned by SkyKraft (AU) in SSO that was launched on Tue, 03 Jan 2023 UTC via an FALCON 9 launch vehicle from the Air Force Eastern Test Range (AFETR). Payload-class satellites include a variety of spacecraft equipped with specific instruments for various scientific and technological missions. These include communications satellites like Starlink; space stations such as the ISS; scientific satellites like the Hubble; Earth observation satellites from companies like Planet Labs, Umbra, and HawkEye 360; GPS; miniature CubeSats for education and research; and military/defense satellites.

Loading next visibility...
Identifier
55041, 2023-001AJ
Orbit
SSO
Country
Flag of AUAU / AUS
Related business
Manufacturer
SkyKraft
Mission
Operational Commercial Technology
Bus & Motor
SKYKRAFT CARRIER, AOCS
Mass
~100 kg wet, ~100 kg dry
Launch date (UTC)
2023-01-03 (3 years ago)
Launch vehicle
FALCON 9
Launch site
Air Force Eastern Test Range (AFETR)
Object type
Payload
Rocket body
Debris
Shape & HBR
Box, 0.3 m
Radar Cross Section
0.065 m², Large (>1 m²)

Expand to show TLE details & history
Last TLE update: 18 hours ago

TLE from 18 hours ago
0 SKYKRAFT-1
1 55041U 23001AJ  26172.52765464  .00043628  00000-0  40732-3 0  9990
2 55041  97.3177 249.9691 0003389  73.8819 286.2815 15.67190359193731
Epoch: 2026-06-21T12:39Z
TLE epoch observation values (Epoch: 2026-06-21T12:39:49.360Z)
Latitude
-0.00002°
Longitude
150.2868°
Altitude
369.463 km
Speed
7.688 km/s
True Right ascension
16h 39m 52s
True Declination
0° 00' 00"
Sunlit
Object was in full shadow at epoch
Visualization orbit readout
Latitude
Unknown
Longitude
Unknown
Altitude
Unknown
Speed
Unknown
Apparent Right ascension
Unknown
Apparent Declination
Unknown
Sunlit
N/A
Visualization observer readout
Local Sidereal Time
17:29:58
Azimuth
Unknown
Elevation
Unknown
Doppler factor
Unknown
Orbital elements
Apogee altitude
366.131 km
Perigee altitude
361.561 km
Semi-major axis
6,741.983 km
Eccentricity
0.00034
Inclination
97.3177°
RAAN
249.9691°
Arg. of periapsis
73.8819°
True anomaly
286.24422°
Mean anomaly
286.2815°
Eccentric anomaly
286.26286°
Mean motion
3.92068 °/min
Orbital period
91.82 mins
BSTAR
0.00040732
Loading maneuver chart data...
Computing Atmospheric mass density...

Documentation

Showing up to 5 results
|